Location: Berlin
(38.3226°N, 75.2177°W)
Time: 23:22:21
(UTC+00:00)

USA 215 - Pass Details

Date: 26 October 2020
Orbit: 1102 x 1106 km, 123.0° (Epoch: 23 November)

Event Time Altitude Azimuth Distance (km) Brightness Sun altitude
Exits shadow 00:42:27 34° 15° (NNE) 1,741 4.2 -30.7°
Drops below altitude 10° 00:47:26 10° 327° (NNW) 2,964 6.0 -31.7°
Sets 00:50:08 0° 319° (NW) 3,924 6.8 -32.2°
